STARLINK-11235, 60726

Orbit data source: Space-Track

STARLINK-11235, 60726 is a payload satellite owned by SpaceX/Seattle (US) in LEO that was launched on Wed, 28 Aug 2024 UTC via an FALCON 9 launch vehicle from the Air Force Eastern Test Range (AFETR). Payload-class satellites include a variety of spacecraft equipped with specific instruments for various scientific and technological missions. These include communications satellites like Starlink; space stations such as the ISS; scientific satellites like the Hubble; Earth observation satellites from companies like Planet Labs, Umbra, and HawkEye 360; GPS; miniature CubeSats for education and research; and military/defense satellites.

Loading next visibility...
Identifier
60726, 2024-152G
Orbit
LEO
Country
Flag of USUS
Related business
Manufacturer
SpaceX/Seattle
Mission
Operational Commercial Communications
Bus & Motor
STARLINK V2M, Unknown motor
Mass
730 kg wet, ~700 kg dry
Launch date (UTC)
2024-08-28 (1 year ago)
Launch vehicle
FALCON 9
Launch site
Air Force Eastern Test Range (AFETR)
Object type
Payload
Rocket body
Debris
Shape & HBR
Box + 2 Pan, 14.5 m
Radar Cross Section
36.964 m², Large (>1 m²)

Expand to show TLE details & history
Last TLE update: 22 hours ago

TLE from 22 hours ago
0 STARLINK-11235
1 60726U 24152G   25242.54327142 -.00000559  00000-0  24434-6 0  9991
2 60726  53.1594 338.5190 0001171  81.8486 278.2665 15.69705348 58944
Epoch: 2025-08-30T13:02Z
TLE epoch observation values (Epoch: 2025-08-30T13:02:18.65Z)
Latitude
-0.00001°
Longitude
163.96523°
Altitude
360.542 km
Speed
7.694 km/s
True Right ascension
22h 34m 04s
True Declination
0° 00' 00"
Sunlit
Object was in full shadow at epoch
Visualization orbit readout
Latitude
Unknown
Longitude
Unknown
Altitude
Unknown
Speed
Unknown
Apparent Right ascension
Unknown
Apparent Declination
Unknown
Sunlit
N/A
Visualization observer readout
Local Sidereal Time
03:02:49
Azimuth
Unknown
Elevation
Unknown
Doppler factor
Unknown
Orbital elements
Apogee altitude
360.79 km
Perigee altitude
359.212 km
Semi-major axis
6,738.138 km
Eccentricity
0.00012
Inclination
53.1594°
RAAN
338.519°
Arg. of periapsis
81.8486°
True anomaly
278.25322°
Mean anomaly
278.2665°
Eccentric anomaly
278.25986°
Mean motion
3.92404 °/min
Orbital period
91.74 mins
BSTAR
2.4434e-7
Loading maneuver chart data...
Computing Atmospheric mass density...
Loading historical data...
Loading historical data...
Loading historical data...
Loading historical data...
Loading historical data...
Loading historical data...
Loading historical data...

Documentation

Showing up to 5 results
|